NKS5927 VNKT-VQPR

Flight info

Callsign NKS5927
Flight time N/A
Altitude 33000
Route IGRI1D KIMTI G348 SUBSU SUBSU1 PR888
Aircraft A320/M-SDE3FGHIRWY/LB1

Departure

Time N/A
Airport Tribhuvan International Airport (VNKT)

Arrival

Time 2026-05-03 20:52
Airport Paro International Airport (VQPR)
Time Latitude Longitude Altitude Speed Heading
2026-05-03 20:15 27.28900 87.24550 33006 ft 451 kts 122°
2026-05-03 20:15 27.25565 87.30557 33009 ft 454 kts 122°
2026-05-03 20:16 27.22224 87.36608 33009 ft 457 kts 122°
2026-05-03 20:16 27.18867 87.42698 33008 ft 461 kts 122°
2026-05-03 20:17 27.15476 87.48840 33011 ft 463 kts 122°
2026-05-03 20:17 27.12094 87.54960 33022 ft 460 kts 122°
2026-05-03 20:18 27.08715 87.61051 33035 ft 459 kts 122°
2026-05-03 20:18 27.05345 87.67116 33023 ft 458 kts 122°
2026-05-03 20:19 27.01977 87.73175 33011 ft 458 kts 122°
2026-05-03 20:19 26.98621 87.79199 33007 ft 458 kts 122°
2026-05-03 20:20 26.95236 87.85272 33012 ft 458 kts 122°
2026-05-03 20:20 26.91857 87.91333 33019 ft 458 kts 122°
2026-05-03 20:21 26.88470 87.97397 33028 ft 457 kts 122°
2026-05-03 20:21 26.85095 88.03421 33021 ft 457 kts 122°
2026-05-03 20:22 26.81741 88.09402 33021 ft 457 kts 122°
2026-05-03 20:22 26.78361 88.15425 33028 ft 456 kts 122°
2026-05-03 20:23 26.75003 88.21428 33034 ft 454 kts 122°
2026-05-03 20:23 26.72130 88.27676 33036 ft 452 kts 106°
2026-05-03 20:23 26.71534 88.31133 33035 ft 451 kts 94°
2026-05-03 20:24 26.71582 88.34625 33034 ft 450 kts 82°
2026-05-03 20:24 26.72270 88.38037 33027 ft 449 kts 70°
2026-05-03 20:24 26.73539 88.41223 32751 ft 448 kts 60°
2026-05-03 20:24 26.75134 88.44220 32079 ft 449 kts 58°
2026-05-03 20:25 26.76765 88.47192 31563 ft 446 kts 58°
2026-05-03 20:25 26.78399 88.50135 31038 ft 443 kts 58°
2026-05-03 20:25 26.80019 88.53048 30509 ft 440 kts 58°
2026-05-03 20:25 26.81617 88.55942 29984 ft 429 kts 58°
2026-05-03 20:26 26.83153 88.58739 29491 ft 415 kts 58°
2026-05-03 20:26 26.84636 88.61454 29010 ft 403 kts 58°
2026-05-03 20:26 26.86080 88.64102 28546 ft 392 kts 58°
2026-05-03 20:26 26.87474 88.66659 28105 ft 389 kts 58°
2026-05-03 20:27 26.88886 88.69248 27656 ft 389 kts 58°
2026-05-03 20:27 26.90300 88.71843 27211 ft 388 kts 58°
2026-05-03 20:27 26.91695 88.74411 26787 ft 386 kts 58°
2026-05-03 20:27 26.93087 88.76979 26358 ft 385 kts 58°
2026-05-03 20:28 26.94476 88.79540 25938 ft 383 kts 58°
2026-05-03 20:28 26.95861 88.82088 25523 ft 381 kts 58°
2026-05-03 20:28 26.97238 88.84614 25111 ft 379 kts 58°
2026-05-03 20:28 26.98605 88.87132 24715 ft 376 kts 59°
2026-05-03 20:29 26.99916 88.89657 24313 ft 374 kts 60°
2026-05-03 20:29 27.01166 88.92159 23931 ft 371 kts 60°
2026-05-03 20:29 27.02402 88.94682 23533 ft 368 kts 61°
2026-05-03 20:29 27.03631 88.97199 23142 ft 366 kts 60°
2026-05-03 20:30 27.04857 88.99695 22730 ft 364 kts 60°
2026-05-03 20:30 27.05672 89.01345 22461 ft 363 kts 60°
2026-05-03 20:30 27.06899 89.03816 22113 ft 360 kts 60°
2026-05-03 20:30 27.08102 89.06229 22014 ft 349 kts 60°
2026-05-03 20:31 27.09654 89.09336 21815 ft 338 kts 60°
2026-05-03 20:31 27.10778 89.11588 21672 ft 326 kts 60°
2026-05-03 20:31 27.11522 89.13082 21579 ft 323 kts 60°
2026-05-03 20:31 27.12596 89.15245 21431 ft 318 kts 60°
2026-05-03 20:32 27.13672 89.17411 21303 ft 318 kts 60°
2026-05-03 20:32 27.14759 89.19596 21028 ft 322 kts 60°
2026-05-03 20:32 27.15857 89.21802 20437 ft 323 kts 60°
2026-05-03 20:32 27.17060 89.23893 19983 ft 315 kts 50°
2026-05-03 20:33 27.18535 89.25669 19530 ft 308 kts 40°
2026-05-03 20:33 27.20223 89.27114 19140 ft 301 kts 31°
2026-05-03 20:33 27.22076 89.28230 18643 ft 304 kts 22°
2026-05-03 20:33 27.24092 89.28985 18164 ft 307 kts 12°
2026-05-03 20:34 27.26193 89.29420 17717 ft 308 kts
2026-05-03 20:34 27.28318 89.29836 17281 ft 309 kts
2026-05-03 20:34 27.30419 89.30253 16802 ft 303 kts
2026-05-03 20:34 27.32476 89.30636 16361 ft 296 kts
2026-05-03 20:35 27.34499 89.30518 15901 ft 289 kts 345°
2026-05-03 20:35 27.36334 89.29749 15498 ft 283 kts 328°
2026-05-03 20:35 27.37972 89.28550 15080 ft 280 kts 325°
2026-05-03 20:35 27.39578 89.27348 14670 ft 277 kts 325°
2026-05-03 20:36 27.41211 89.26226 14265 ft 274 kts 335°
2026-05-03 20:36 27.43016 89.25730 14044 ft 258 kts 357°
2026-05-03 20:36 27.44731 89.25962 14028 ft 243 kts 16°
2026-05-03 20:36 27.46196 89.26768 13904 ft 225 kts 36°
2026-05-03 20:37 27.47262 89.27940 13860 ft 206 kts 51°
2026-05-03 20:37 27.47930 89.29286 13694 ft 195 kts 68°
2026-05-03 20:37 27.48179 89.30763 13183 ft 193 kts 91°
2026-05-03 20:37 27.48019 89.32277 12468 ft 197 kts 99°
2026-05-03 20:38 27.47782 89.33826 11670 ft 205 kts 105°
2026-05-03 20:38 27.46991 89.35144 10895 ft 209 kts 146°
2026-05-03 20:38 27.45757 89.35991 10337 ft 205 kts 141°
2026-05-03 20:38 27.45028 89.37311 9905 ft 196 kts 110°
2026-05-03 20:39 27.44582 89.38693 9768 ft 182 kts 111°
2026-05-03 20:39 27.44136 89.40045 9212 ft 190 kts 109°
2026-05-03 20:39 27.43492 89.41329 8499 ft 193 kts 148°
2026-05-03 20:39 27.42218 89.41561 7862 ft 188 kts 181°
2026-05-03 20:40 27.41025 89.42032 7339 ft 181 kts 151°
2026-05-03 20:40 27.40034 89.42650 7597 ft 162 kts 151°
2026-05-03 20:40 27.38988 89.43321 8040 ft 183 kts 151°
2026-05-03 20:40 27.37865 89.44052 8868 ft 184 kts 151°
2026-05-03 20:41 27.36758 89.44788 9324 ft 195 kts 150°
2026-05-03 20:41 27.35527 89.45613 9476 ft 216 kts 151°
2026-05-03 20:41 27.34170 89.46522 9637 ft 238 kts 150°
2026-05-03 20:41 27.32685 89.47515 9997 ft 255 kts 147°
2026-05-03 20:42 27.31417 89.48916 10632 ft 260 kts 125°
2026-05-03 20:42 27.30326 89.50521 11394 ft 255 kts 141°
2026-05-03 20:42 27.28782 89.51369 12071 ft 251 kts 169°
2026-05-03 20:42 27.27013 89.51377 12485 ft 259 kts 196°
2026-05-03 20:43 27.25401 89.50481 13066 ft 262 kts 223°
2026-05-03 20:43 27.24291 89.48869 13633 ft 265 kts 246°
2026-05-03 20:43 27.23891 89.46872 13786 ft 259 kts 273°
2026-05-03 20:43 27.24278 89.44976 13810 ft 241 kts 296°
2026-05-03 20:44 27.25220 89.43519 13816 ft 223 kts 315°
2026-05-03 20:44 27.26316 89.42327 13814 ft 217 kts 315°
2026-05-03 20:44 27.27393 89.41141 13814 ft 216 kts 314°
2026-05-03 20:44 27.28449 89.39976 13816 ft 215 kts 314°
2026-05-03 20:45 27.29516 89.38799 13809 ft 214 kts 315°
2026-05-03 20:45 27.30580 89.37625 13811 ft 215 kts 315°
2026-05-03 20:45 27.31654 89.36442 13812 ft 215 kts 314°
2026-05-03 20:45 27.32726 89.35262 13808 ft 215 kts 315°
2026-05-03 20:46 27.33789 89.34089 13813 ft 215 kts 314°
2026-05-03 20:46 27.34852 89.32915 13809 ft 214 kts 314°
2026-05-03 20:46 27.35914 89.31740 13823 ft 214 kts 314°
2026-05-03 20:46 27.36977 89.30565 13800 ft 214 kts 314°
2026-05-03 20:47 27.38041 89.29391 13813 ft 213 kts 314°
2026-05-03 20:47 27.39066 89.28261 13811 ft 200 kts 314°
2026-05-03 20:47 27.40016 89.27214 13843 ft 184 kts 315°
2026-05-03 20:47 27.41008 89.26345 13811 ft 178 kts 330°
2026-05-03 20:48 27.42163 89.25845 13817 ft 180 kts 346°
2026-05-03 20:48 27.43410 89.25706 13817 ft 182 kts
2026-05-03 20:48 27.44645 89.25917 13812 ft 183 kts 14°
2026-05-03 20:48 27.45810 89.26479 13788 ft 183 kts 30°
2026-05-03 20:49 27.46811 89.27352 13826 ft 184 kts 44°
2026-05-03 20:49 27.47609 89.28502 13687 ft 186 kts 60°
2026-05-03 20:49 27.48091 89.29875 13147 ft 194 kts 77°
2026-05-03 20:49 27.48161 89.31399 12562 ft 193 kts 98°
2026-05-03 20:50 27.47930 89.32854 12091 ft 188 kts 101°
2026-05-03 20:50 27.47684 89.34309 11479 ft 191 kts 103°
2026-05-03 20:50 27.46971 89.35562 10786 ft 194 kts 150°
2026-05-03 20:50 27.45678 89.36062 9995 ft 202 kts 155°
2026-05-03 20:51 27.44854 89.37264 9401 ft 200 kts 106°
2026-05-03 20:51 27.44476 89.38771 8853 ft 195 kts 107°
2026-05-03 20:51 27.44086 89.40179 8520 ft 181 kts 121°
2026-05-03 20:51 27.43202 89.41124 8075 ft 176 kts 159°
2026-05-03 20:52 27.42061 89.41489 7737 ft 170 kts 167°
2026-05-03 20:52 27.41002 89.42038 7344 ft 161 kts 152°
2026-05-03 20:52 27.40188 89.42555 7335 ft 95 kts 150°
2026-05-03 20:52 27.39831 89.42784 7337 ft 43 kts 151°
2026-05-03 20:53 27.39608 89.42923 7338 ft 31 kts 150°
2026-05-03 20:53 27.39451 89.43012 7336 ft 14 kts 188°
2026-05-03 20:53 27.39441 89.42924 7334 ft 14 kts 318°
2026-05-03 20:53 27.39527 89.42869 7334 ft 14 kts 330°
2026-05-03 20:54 27.39616 89.42813 7334 ft 15 kts 331°
2026-05-03 20:54 27.39815 89.42688 7334 ft 17 kts 330°
2026-05-03 20:54 27.39920 89.42620 7333 ft 18 kts 330°
2026-05-03 20:55 27.40034 89.42547 7333 ft 19 kts 330°
2026-05-03 20:55 27.40149 89.42475 7333 ft 19 kts 330°
2026-05-03 20:55 27.40270 89.42400 7333 ft 20 kts 328°
2026-05-03 20:55 27.40393 89.42318 7334 ft 20 kts 330°
2026-05-03 20:56 27.40518 89.42239 7334 ft 21 kts 330°
2026-05-03 20:56 27.40612 89.42169 7334 ft 10 kts 287°
2026-05-03 20:56 27.40591 89.42118 7332 ft 3 kts 240°
2026-05-03 20:56 27.40589 89.42113 7332 ft 0 kts 240°